Simultaneous Nadir Overpasses (SNOs) Predictions

Prediction of SNOs between NOAA-19 and TERRA Satellite Orbit:

Table of predicted SNOs for the next 14.0 days since TLE Epoch: 11/24/2018
Index Date (NOAA-19) Time (NOAA-19) Lat,Lon (NOAA-19) SZA (NOAA-19 ) Date (TERRA) Time (TERRA) Lat,Lon (TERRA) SZA (TERRA ) Distance(km) Time Diff (sec)
1 11/24/2018 09:48:15 77.73, 51.85 99.10 11/24/2018 09:48:13 77.73, 51.86 99.10 0.23 2
2 11/26/2018 15:21:43 -77.75, 148.48 80.47 11/26/2018 15:21:55 -77.75, 148.49 80.47 0.38 12
3 11/28/2018 20:55:17 77.74,-114.79 99.92 11/28/2018 20:55:36 77.74,-114.94 99.92 3.37 19
4 11/28/2018 21:46:13 -77.71, 52.62 80.10 11/28/2018 21:45:04 -77.71, 52.55 80.13 1.83 69
5 12/01/2018 02:28:44 -77.76, -18.16 79.72 12/01/2018 02:29:18 -77.76, -18.29 79.72 3.14 34
6 12/01/2018 03:19:48 77.73, 149.22 100.28 12/01/2018 03:18:44 77.75, 149.30 100.28 2.75 64
7 12/03/2018 08:02:20 77.80, 78.29 100.63 12/03/2018 08:02:58 77.80, 78.45 100.65 3.74 38
8 12/03/2018 08:53:14 -77.72,-114.03 79.41 12/03/2018 08:52:26 -77.76,-114.05 79.39 4.37 48
9 12/05/2018 13:35:46 -77.81, 174.96 79.08 12/05/2018 13:36:40 -77.81, 175.10 79.06 3.27 54
10 12/05/2018 14:26:50 77.76, -17.52 100.90 12/05/2018 14:26:07 77.75, -17.52 100.88 0.33 43
11 12/07/2018 19:09:21 77.79, -88.27 101.16 12/07/2018 19:10:21 77.80, -88.38 101.17 2.69 60




NCC Satellite Simultaneous Nadir Overpasses (SNOs) Prediction Service
